Miscellaneous Local Product
Issued by NWS Hastings, NE

Home | Current Version | Previous Version | Graphics & Text | Print | Product List | Glossary On
Versions: 1 2 3 4 5 6 7 8 9 10 11 12 13 14 15 16 17 18 19 20 21 22 23 24 25 26 27 28 29 30 31 32 33 34 35 36 37 38 39 40 41 42 43 44 45 46 47 48 49 50
000
AXUS43 KGID 211302
MISGRI

GID CWA HOURLY WEATHER ROUNDUP
NATIONAL WEATHER SERVICE HASTINGS NE
700 AM CST SUN DEC 21 2014

NOTE: "FAIR" INDICATES FEW OR NO CLOUDS BELOW 12,000 FEET WITH NO
SIGNIFICANT WEATHER AND/OR OBSTRUCTIONS TO VISIBILITY.

...SOUTH CENTRAL NEBRASKA...

CITY           SKY/WX    TMP DP  RH WIND       PRES   REMARKS
GRAND ISLAND   CLOUDY    31  31 100 S5        29.83F FOG     WCI  26
HASTINGS       CLOUDY    33  32  96 S6        29.82F FOG     WCI  28
KEARNEY        CLOUDY    30  28  93 S9        29.81F WCI  22
ORD            NOT AVBL
YORK           CLOUDY    34  34 100 S13       29.85F FOG     WCI  25
AURORA         CLOUDY    34  34 100 S10       29.83F FOG     WCI  26
LEXINGTON      CLOUDY    31  30  94 S3        29.78F
HOLDREGE       CLOUDY    33  31  89 S5        29.81F WCI  29
HEBRON         CLOUDY    37  34  91 S15       29.90S FOG     WCI  27

...NEBRASKA PANHANDLE...

CITY           SKY/WX    TMP DP  RH WIND       PRES   REMARKS
CHADRON        CLEAR     23  19  85 SE3       29.64F
ALLIANCE       PTCLDY    23  18  81 CALM      29.67F
SCOTTSBLUFF    CLEAR     20  16  84 E7        29.69F WCI  11
SIDNEY         CLEAR     21  16  81 SW10      29.73F WCI  10

...WESTERN AND NORTH CENTRAL NEBRASKA...

CITY           SKY/WX    TMP DP  RH WIND       PRES   REMARKS
VALENTINE      CLEAR     21  18  88 CALM      29.68F
AINSWORTH      PTCLDY    30  25  81 SW13      29.70F WCI  20
ONEILL         CLOUDY    27  27  99 S6        29.74F WCI  21
BROKEN BOW     CLOUDY    30  27  88 CALM      29.76F
IMPERIAL       CLEAR     26  22  84 CALM      29.75F
NORTH PLATTE   PTCLDY    22  19  89 CALM      29.75F
MCCOOK         MOCLDY    27  25  92 SW6       29.79S WCI  20

...EASTERN NEBRASKA...

CITY           SKY/WX    TMP DP  RH WIND       PRES   REMARKS
NORFOLK        FOG       32  32 100 S7        29.80F VSB 3/4 WCI  26
SO SIOUX CITY  CLOUDY    37  36  96 S10       29.84F FOG     WCI  30
TEKAMAH        CLOUDY    38  36  92 S13       29.87F WCI  30
COLUMBUS       CLOUDY    36  30  80 SW7       29.85S WCI  30
ALBION         FOG       28  27  94 S5        29.81F VSB 3/4 WCI  23
OMAHA EPPLEY   CLOUDY    37  35  92 S14       29.91F FOG     WCI  28
OFFUTT AFB     CLOUDY    37  35  95 SE8       29.91F WCI  30
MILLARD        CLOUDY    39  37  91 SE7       29.91S WCI  34
LINCOLN        CLOUDY    39  37  92 S13       29.90F WCI  31
NEBRASKA CITY  CLOUDY    35  35 100 S12       29.94S FOG     WCI  27
BEATRICE       CLOUDY    38  37  94 SW14      29.91S WCI  30
FALLS CITY     CLOUDY    37  34  89 S14       29.97S WCI  28

...NORTHERN KANSAS...

CITY           SKY/WX    TMP DP  RH WIND       PRES   REMARKS
GOODLAND       CLEAR     28  25  88 SW6       29.79F WCI  22
HILL CITY      CLOUDY    33  30  88 S7        29.84F WCI  27
NORTON         MOSUNNY   34  28  80 S5        29.80F WCI  30
PHILLIPSBURG   CLEAR     34  34 100 SE5       29.86F FOG     WCI  30
SMITH CENTER   CLEAR     32  32 100 S9        29.87F FOG     WCI  24
BELOIT         CLOUDY    37  37 100 S10       29.91S WCI  30
HAYS           CLOUDY    36  28  75 S9        29.88F WCI  29
RUSSELL        CLOUDY    37  37 100 S13       29.89F FOG     WCI  29
CONCORDIA      FOG       36  36 100 SW13      29.92F VSB 1   WCI  27
SALINA         CLOUDY    40  37  89 S15       29.96F WCI  32
TOPEKA         CLOUDY   N/A N/A N/A S9        30.02F



USA.gov is the U.S. government's official web portal to all federal, state and local government web resources and services.